Weather in Popivka

Ukraine / Poltava Region     49°46′48″N   33°21′14″E
temp.,
°C
wind,
m/s
gust,
m/s
humid.,
%
clouds,
%
prec.,
mm/h
press.,
hPa
HPBL,
m
15 august, mon
mon1500:00+24ene8175015 0.0 1010572
03:00+24ene7164694 0.0 1010504
06:00+23ene71242100 0.0 1009351
09:00+24ene61441100 0.0 1009535
12:00+31e71027100 0.0 1009782
15:00+33ene71223100 0.0 10082317
18:00+33ene81321100 0.0 10061034
21:00+32ene91622100 0.0 1006979
16 august, tue
tue1600:00+29e81525100 0.0 1006685
03:00+26sse5938100 0.1 1008344
06:00+22se51172100 0.1 1009297
09:00+25sse3657100 0.1 1009389
12:00+26e5842100 0.1 10101143
15:00+22s3469100 0.6 1010257
18:00+22nne2278100 0.8 101062
21:00+19ne1189100 3.3 101011
17 august, wed
wed1700:00+19nne338936 0.1 101038
03:00+18nne22905 0.1 100913
06:00+18wsw00845 0.0 100911
09:00+23sw22675 0.0 1009367
12:00+29s22435 0.0 10091415
15:00+30se2239100 0.1 10091801
18:00+22wnw3480100 3.2 100960
21:00+22ne3377100 4.1 100936
18 august, thu
thu1800:00+20sw228430 0.1 100922
03:00+19w118832 0.1 100811
06:00+18n11857 0.0 100812
09:00+23ene226085 0.0 1009318
12:00+29se124651 0.0 10081108
15:00+31ese123810 0.0 10082076
18:00+31e133826 0.0 10071911
21:00+23nnw457285 1.9 100979
19 august, fri
fri1900:00+21ne347082 0.3 100849
03:00+19ne357189 0.3 100979
06:00+18ne467499 0.2 1009112
09:00+23ene4664100 0.2 1010439
12:00+28e3347100 0.0 10101052
15:00+29e2243100 0.0 10101109
18:00+29ne234761 0.0 1010190
21:00+24ne335991 0.2 101122